CW7427 Weather Reports


Display with metric or nautical units.
time (UTC)temp
F
wind
direction
speed
MPH
gust
MPH
rain 1hr
in
rain 24hr
in
rain mn
in
humidity
%
barometer
mb
20260906161453 56 107 0.0 0.0 0.00 0.00 0.00 90 1020.0
20260906161206 56 107 0.0 0.0 0.00 0.00 0.00 90 1019.9
20260906160445 55 107 0.0 0.0 0.00 0.00 0.00 89 1020.0
20260906160201 55 107 0.0 0.0 0.00 0.00 0.00 89 1020.1
20260906155435 56 107 0.0 0.0 0.00 0.00 0.00 89 1020.0
20260906154929 56 107 0.0 0.0 0.00 0.00 0.00 88 1020.0
20260906154427 56 107 0.0 0.0 0.00 0.00 0.00 88 1020.0
20260906153904 57 107 0.0 0.0 0.00 0.00 0.00 88 1020.0
20260906153401 57 107 0.0 0.0 0.00 0.00 0.00 88 1020.1
20260906152901 57 107 0.0 0.0 0.00 0.00 0.00 88 1020.1
20260906152348 57 107 0.0 0.0 0.00 0.00 0.00 88 1020.2
20260906151811 57 107 0.0 0.0 0.00 0.00 0.00 88 1020.3
20260906151308 57 107 0.0 0.0 0.00 0.00 0.00 88 1020.4
20260906150759 57 107 0.0 0.0 0.00 0.00 0.00 88 1020.5
20260906150302 57 107 0.0 0.0 0.00 0.00 0.00 88 1020.5
20260906145714 57 107 0.0 0.0 0.00 0.00 0.00 88 1020.5
20260906145138 57 107 0.0 0.0 0.00 0.00 0.00 88 1020.5
20260906145055 57 107 0.0 0.0 0.00 0.00 0.00 89 1020.4
20260906144101 57 107 0.0 0.0 0.00 0.00 0.00 89 1020.5
20260906143537 57 107 0.0 0.0 0.00 0.00 0.00 89 1020.4
20260906143258 56 107 0.0 0.0 0.00 0.00 0.00 89 1020.3
20260906142521 56 107 0.0 0.0 0.00 0.00 0.00 89 1020.3
20260906142254 56 107 0.0 0.0 0.00 0.00 0.00 89 1020.2
20260906141738 56 107 0.0 0.0 0.00 0.00 0.00 89 1020.2
20260906141002 56 107 0.0 0.0 0.00 0.00 0.00 89 1020.3
20260906140718 56 107 0.0 0.0 0.00 0.00 0.00 89 1020.2
20260906135958 56 107 0.0 0.0 0.00 0.00 0.00 89 1020.2
20260906135456 56 107 0.0 0.0 0.00 0.00 0.00 89 1020.3
20260906134950 56 107 0.0 0.0 0.00 0.00 0.00 89 1020.2
20260906134435 56 107 0.0 0.0 0.00 0.00 0.00 89 1020.2
20260906133908 56 107 0.0 0.0 0.00 0.00 0.00 89 1020.2
20260906133633 56 107 0.0 0.0 0.00 0.00 0.00 89 1020.2
20260906132902 56 107 0.0 0.0 0.00 0.00 0.00 89 1020.2
20260906132332 56 107 0.0 0.0 0.00 0.00 0.00 89 1020.2
20260906131814 56 107 0.0 0.0 0.00 0.00 0.00 89 1020.2
20260906131308 56 107 0.0 0.0 0.00 0.00 0.00 89 1020.1
20260906130800 56 107 0.0 0.0 0.00 0.00 0.00 89 1020.1
20260906130246 56 107 0.0 0.0 0.00 0.00 0.00 88 1020.1
20260906125931 56 107 0.0 0.0 0.00 0.00 0.00 88 1020.2
20260906125200 56 107 0.0 0.0 0.00 0.00 0.00 88 1020.2
20260906124650 56 107 0.0 0.0 0.00 0.00 0.00 87 1020.3
20260906124140 56 107 0.0 0.0 0.00 0.00 0.00 87 1020.2
20260906123631 56 107 0.0 0.0 0.00 0.00 0.00 87 1020.2
20260906123344 57 107 0.0 0.0 0.00 0.00 0.00 86 1020.2
20260906122610 57 107 0.0 0.0 0.00 0.00 0.00 86 1020.3
20260906122108 57 107 0.0 0.0 0.00 0.00 0.00 86 1020.2
20260906121559 58 107 0.0 0.0 0.00 0.00 0.00 86 1020.2
20260906121055 58 107 0.0 0.0 0.00 0.00 0.00 85 1020.2
20260906120547 58 107 0.0 0.0 0.00 0.00 0.00 85 1020.2
20260906120032 58 107 0.0 0.0 0.00 0.00 0.00 84 1020.3
20260906115523 58 107 0.0 0.0 0.00 0.00 0.00 84 1020.4
20260906115012 58 107 0.0 0.0 0.00 0.00 0.00 83 1020.3
20260906114501 59 107 0.0 0.0 0.00 0.00 0.00 83 1020.3
20260906113956 59 107 0.0 0.0 0.00 0.00 0.00 84 1020.2
20260906113449 59 107 0.0 0.0 0.00 0.00 0.00 83 1020.2
20260906112950 59 107 0.0 0.0 0.00 0.00 0.00 83 1020.2
20260906112440 60 107 0.0 0.0 0.00 0.00 0.00 82 1020.2
20260906111939 60 107 0.0 0.0 0.00 0.00 0.00 82 1020.3
20260906111425 60 107 0.0 0.0 0.00 0.00 0.00 82 1020.2
20260906110908 60 107 0.0 0.0 0.00 0.00 0.00 81 1020.1
20260906110404 60 107 0.0 3.0 0.00 0.00 0.00 81 1020.1
20260906105852 60 107 0.0 3.0 0.00 0.00 0.00 80 1020.0
20260906105352 60 107 0.0 0.0 0.00 0.00 0.00 80 1019.9
20260906104846 61 107 0.0 0.0 0.00 0.00 0.00 80 1019.8
20260906104550 61 107 0.0 1.0 0.00 0.00 0.00 79 1019.8
20260906104312 61 107 0.0 2.0 0.00 0.00 0.00 79 1019.7
20260906103310 62 107 1.0 7.0 0.00 0.00 0.00 78 1019.7
20260906102804 62 107 1.0 9.0 0.00 0.00 0.00 78 1019.7
20260906102254 62 121 1.0 6.0 0.00 0.00 0.00 78 1019.7
20260906101756 62 120 1.0 5.0 0.00 0.00 0.00 78 1019.5
20260906101242 62 107 0.0 4.0 0.00 0.00 0.00 78 1019.4
20260906100731 62 107 0.0 6.0 0.00 0.00 0.00 77 1019.3
20260906100448 62 107 1.0 7.0 0.00 0.00 0.00 77 1019.2
20260906095715 62 92 2.0 8.0 0.00 0.00 0.00 77 1019.2
20260906095212 62 135 2.0 8.0 0.00 0.00 0.00 76 1019.1
20260906094700 62 109 2.0 6.0 0.00 0.00 0.00 76 1019.1
20260906094153 62 102 2.0 6.0 0.00 0.00 0.00 76 1019.1
20260906093644 62 121 2.0 6.0 0.00 0.00 0.00 76 1019.0
20260906093133 62 138 2.0 8.0 0.00 0.00 0.00 77 1019.0
20260906092845 62 145 1.0 8.0 0.00 0.00 0.00 77 1018.9
20260906092120 62 131 1.0 7.0 0.00 0.00 0.00 77 1018.8
20260906091619 62 128 2.0 7.0 0.00 0.00 0.00 77 1018.8
20260906091107 62 110 2.0 6.0 0.00 0.00 0.00 76 1018.8
20260906090608 62 88 1.0 5.0 0.00 0.00 0.00 76 1018.7
20260906090108 62 88 1.0 8.0 0.00 0.00 0.00 76 1018.7
20260906085602 62 88 3.0 8.0 0.00 0.00 0.00 76 1018.7
20260906085317 62 40 2.0 8.0 0.00 0.00 0.00 75 1018.6
20260906084821 62 105 2.0 8.0 0.00 0.00 0.00 75 1018.6
20260906084045 63 121 2.0 8.0 0.00 0.00 0.00 74 1018.6
20260906083545 63 122 2.0 7.0 0.00 0.00 0.00 74 1018.5
20260906083037 63 125 3.0 9.0 0.00 0.00 0.00 73 1018.4
20260906082535 63 128 2.0 9.0 0.00 0.00 0.00 73 1018.4
20260906082036 63 128 3.0 8.0 0.00 0.00 0.00 72 1018.3
20260906081759 63 117 2.0 8.0 0.00 0.00 0.00 72 1018.2
20260906081034 63 111 2.0 8.0 0.00 0.00 0.00 70 1018.1
20260906081017 64 114 2.0 7.0 0.00 0.00 0.00 70 1017.9
20260906080035 64 96 2.0 8.0 0.00 0.00 0.00 69 1017.8
20260906075523 64 105 2.0 9.0 0.00 0.00 0.00 68 1017.8
20260906075224 64 142 2.0 7.0 0.00 0.00 0.00 66 1017.6
20260906075110 64 107 3.0 9.0 0.00 0.00 0.00 68 1017.7
20260906074003 64 107 1.0 8.0 0.00 0.00 0.00 63 1017.6
20260906073455 65 109 2.0 8.0 0.00 0.00 0.00 61 1017.5
20260906072951 65 128 3.0 8.0 0.00 0.00 0.00 59 1017.4
20260906072439 65 178 3.0 9.0 0.00 0.00 0.00 58 1017.3
20260906072421 65 115 3.0 10.0 0.00 0.00 0.00 58 1017.0
20260906071423 66 113 2.0 10.0 0.00 0.00 0.00 58 1016.9
20260906070923 66 103 2.0 7.0 0.00 0.00 0.00 58 1016.8
20260906070407 66 104 2.0 9.0 0.00 0.00 0.00 58 1016.6
20260906070124 67 101 3.0 9.0 0.00 0.00 0.00 57 1016.5
20260906065400 67 129 3.0 9.0 0.00 0.00 0.00 56 1016.5
20260906064903 67 119 3.0 10.0 0.00 0.00 0.00 55 1016.4
20260906064357 67 98 4.0 10.0 0.00 0.00 0.00 55 1016.3
20260906063858 68 111 3.0 9.0 0.00 0.00 0.00 54 1016.2
20260906063353 68 126 2.0 9.0 0.00 0.00 0.00 53 1016.2
20260906062852 69 115 2.0 6.0 0.00 0.00 0.00 52 1016.1
20260906062350 69 119 2.0 7.0 0.00 0.00 0.00 51 1016.0
20260906061841 70 113 2.0 7.0 0.00 0.00 0.00 49 1015.9
20260906061337 71 67 2.0 7.0 0.00 0.00 0.00 47 1015.7
20260906060828 71 54 1.0 7.0 0.00 0.00 0.00 45 1015.6
20260906060327 72 87 0.0 2.0 0.00 0.00 0.00 42 1015.7
20260906055826 72 87 1.0 6.0 0.00 0.00 0.00 43 1015.6
20260906055318 72 88 1.0 6.0 0.00 0.00 0.00 42 1015.5
20260906054814 72 87 0.0 6.0 0.00 0.00 0.00 42 1015.5
20260906054313 73 80 1.0 5.0 0.00 0.00 0.00 41 1015.4
20260906053758 73 80 2.0 7.0 0.00 0.00 0.00 40 1015.4
20260906053257 73 111 1.0 7.0 0.00 0.00 0.00 40 1015.4
20260906052745 73 163 0.0 1.0 0.00 0.00 0.00 40 1015.3
20260906052246 73 163 0.0 0.0 0.00 0.00 0.00 39 1015.2
20260906051713 74 163 0.0 0.0 0.00 0.00 0.00 39 1015.2
20260906051209 73 163 0.0 0.0 0.00 0.00 0.00 39 1015.1
20260906050702 73 163 0.0 2.0 0.00 0.00 0.00 39 1015.1
20260906050152 73 163 0.0 2.0 0.00 0.00 0.00 39 1015.1
20260906045643 74 163 0.0 2.0 0.00 0.00 0.00 40 1015.0
20260906045347 73 163 0.0 2.0 0.00 0.00 0.00 40 1015.0
20260906044617 73 163 0.0 5.0 0.00 0.00 0.00 39 1015.0
20260906044113 74 163 1.0 6.0 0.00 0.00 0.00 40 1015.0
20260906043608 74 147 1.0 6.0 0.00 0.00 0.00 38 1015.0
20260906043108 73 105 0.0 1.0 0.00 0.00 0.00 40 1014.9
20260906042609 73 104 0.0 4.0 0.00 0.00 0.00 39 1015.0
20260906042110 74 105 0.0 4.0 0.00 0.00 0.00 41 1014.8
20260906041826 74 105 0.0 2.0 0.00 0.00 0.00 39 1014.8
20260906041101 74 105 0.0 1.0 0.00 0.00 0.00 40 1014.7
20260906040547 73 105 0.0 0.0 0.00 0.00 0.00 40 1014.7
20260906040040 72 105 0.0 2.0 0.00 0.00 0.00 43 1014.8
20260906035537 74 105 0.0 6.0 0.00 0.00 0.00 40 1014.8
20260906035026 73 105 0.0 4.0 0.00 0.00 0.00 41 1014.8
20260906034733 73 105 0.0 4.0 0.00 0.00 0.00 41 1014.9
20260906034017 73 105 0.0 4.0 0.00 0.00 0.00 41 1014.9
20260906033503 73 105 0.0 4.0 0.00 0.00 0.00 41 1014.9
20260906033002 73 105 0.0 3.0 0.00 0.00 0.00 40 1014.8
20260906032443 73 112 0.0 2.0 0.00 0.00 0.00 41 1014.8
20260906031948 73 112 1.0 7.0 0.00 0.00 0.00 42 1014.8
20260906031443 74 112 1.0 7.0 0.00 0.00 0.00 41 1014.8
20260906030931 73 236 0.0 6.0 0.00 0.00 0.00 40 1014.8
20260906030422 73 318 0.0 2.0 0.00 0.00 0.00 40 1014.8
20260906025905 72 317 0.0 3.0 0.00 0.00 0.00 41 1014.7
20260906025623 72 317 0.0 3.0 0.00 0.00 0.00 43 1014.7
20260906024845 72 315 0.0 5.0 0.00 0.00 0.00 41 1014.7
20260906024335 73 315 0.0 5.0 0.00 0.00 0.00 41 1014.8
20260906024043 73 332 0.0 4.0 0.00 0.00 0.00 41 1014.8
20260906023314 72 81 0.0 5.0 0.00 0.00 0.00 40 1014.8
20260906022805 73 81 0.0 5.0 0.00 0.00 0.00 41 1014.9
20260906022518 72 71 1.0 9.0 0.00 0.00 0.00 42 1014.9
20260906021744 73 74 1.0 9.0 0.00 0.00 0.00 41 1014.9
20260906021243 73 279 0.0 4.0 0.00 0.00 0.00 45 1014.9
20260906021012 72 279 0.0 4.0 0.00 0.00 0.00 45 1014.9
20260906020235 72 283 0.0 2.0 0.00 0.00 0.00 45 1014.9
20260906015736 72 283 0.0 5.0 0.00 0.00 0.00 42 1015.0
20260906015231 72 300 1.0 5.0 0.00 0.00 0.00 44 1015.0
20260906014720 71 230 1.0 6.0 0.00 0.00 0.00 42 1014.9
20260906014223 71 92 1.0 6.0 0.00 0.00 0.00 42 1015.0
20260906013706 71 91 1.0 6.0 0.00 0.00 0.00 43 1015.1
20260906013203 71 90 1.0 5.0 0.00 0.00 0.00 42 1015.0
20260906012928 71 213 0.0 4.0 0.00 0.00 0.00 44 1015.1
20260906012420 71 204 0.0 4.0 0.00 0.00 0.00 43 1015.0
20260906011857 71 130 0.0 4.0 0.00 0.00 0.00 45 1015.1
20260906011119 71 130 0.0 6.0 0.00 0.00 0.00 44 1015.0
20260906010604 70 117 0.0 6.0 0.00 0.00 0.00 44 1015.1
20260906010048 71 115 0.0 4.0 0.00 0.00 0.00 44 1015.2
20260906005543 71 109 0.0 2.0 0.00 0.00 0.00 44 1015.2
20260906005023 71 219 0.0 5.0 0.00 0.00 0.00 45 1015.2
20260906004517 70 219 0.0 5.0 0.00 0.00 0.00 45 1015.1
20260906004006 71 99 0.0 3.0 0.00 0.00 0.00 45 1015.0
20260906003730 70 98 0.0 4.0 0.00 0.00 0.00 46 1015.0
20260906002955 70 101 0.0 4.0 0.00 0.00 0.00 46 1015.1
20260906002704 69 233 0.0 4.0 0.00 0.00 0.00 45 1015.1
20260906001934 69 227 0.0 4.0 0.00 0.00 0.00 48 1015.0
20260906001428 70 266 0.0 5.0 0.00 0.00 0.00 48 1015.0
20260906000922 69 263 1.0 6.0 0.00 0.00 0.00 47 1015.0
20260906000412 69 128 0.0 6.0 0.00 0.00 0.00 45 1014.9
20260905235903 69 169 0.0 0.0 0.00 0.00 0.00 46 1014.8
20260905235357 69 169 0.0 0.0 0.00 0.00 0.00 45 1014.7
20260905234847 69 169 0.0 4.0 0.00 0.00 0.00 45 1014.7
20260905234337 69 169 0.0 4.0 0.00 0.00 0.00 46 1014.6
20260905234052 68 169 0.0 4.0 0.00 0.00 0.00 47 1014.7
20260905233324 68 169 0.0 1.0 0.00 0.00 0.00 48 1014.7
20260905233034 68 169 0.0 2.0 0.00 0.00 0.00 46 1014.7
20260905232306 68 173 0.0 3.0 0.00 0.00 0.00 47 1014.7
20260905231754 67 173 0.0 3.0 0.00 0.00 0.00 49 1014.5
20260905231244 67 175 0.0 2.0 0.00 0.00 0.00 48 1014.6
20260905230735 67 175 0.0 2.0 0.00 0.00 0.00 50 1014.6
20260905230224 67 174 0.0 2.0 0.00 0.00 0.00 48 1014.5
20260905225718 67 174 0.0 2.0 0.00 0.00 0.00 48 1014.5
20260905225207 67 190 0.0 1.0 0.00 0.00 0.00 48 1014.3
20260905224658 66 190 0.0 2.0 0.00 0.00 0.00 52 1014.3
20260905224152 66 240 0.0 2.0 0.00 0.00 0.00 48 1014.3
20260905223646 65 246 0.0 2.0 0.00 0.00 0.00 52 1014.3
20260905223136 65 237 1.0 5.0 0.00 0.00 0.00 50 1014.2
20260905222635 65 238 0.0 5.0 0.00 0.00 0.00 50 1014.2
20260905222132 65 285 0.0 1.0 0.00 0.00 0.00 51 1014.1
20260905221617 64 285 0.0 2.0 0.00 0.00 0.00 51 1014.2
20260905221105 64 285 0.0 4.0 0.00 0.00 0.00 52 1014.2
20260905220609 64 332 0.0 4.0 0.00 0.00 0.00 52 1014.2
20260905220107 63 345 0.0 4.0 0.00 0.00 0.00 53 1014.0
20260905215601 63 345 0.0 4.0 0.00 0.00 0.00 53 1013.9
20260905215050 63 248 0.0 6.0 0.00 0.00 0.00 53 1013.7
20260905214538 63 248 0.0 6.0 0.00 0.00 0.00 53 1013.6
20260905214033 62 276 0.0 4.0 0.00 0.00 0.00 54 1013.3
20260905213758 62 337 0.0 0.0 0.00 0.00 0.00 54 1013.3
20260905213005 62 337 0.0 1.0 0.00 0.00 0.00 53 1013.1
20260905212505 62 337 0.0 2.0 0.00 0.00 0.00 53 1013.0
20260905212006 62 337 0.0 2.0 0.00 0.00 0.00 54 1012.7
20260905211456 61 355 0.0 0.0 0.00 0.00 0.00 54 1012.8
20260905210951 61 355 0.0 2.0 0.00 0.00 0.00 54 1012.8
20260905210411 61 355 0.0 2.0 0.00 0.00 0.00 56 1012.8
20260905205901 60 355 0.0 2.0 0.00 0.00 0.00 55 1012.5
20260905205402 60 355 0.0 0.0 0.00 0.00 0.00 56 1012.6
20260905204900 59 355 0.0 0.0 0.00 0.00 0.00 57 1012.6
20260905204358 59 232 0.0 0.0 0.00 0.00 0.00 57 1012.3
20260905203847 58 232 0.0 0.0 0.00 0.00 0.00 58 1012.2
20260905203612 58 232 0.0 2.0 0.00 0.00 0.00 59 1012.0
20260905202834 57 231 0.0 2.0 0.00 0.00 0.00 59 1012.1
20260905202329 56 236 0.0 0.0 0.00 0.00 0.00 61 1012.2
20260905201824 56 236 0.0 3.0 0.00 0.00 0.00 61 1012.0
20260905201312 56 236 0.0 3.0 0.00 0.00 0.00 62 1011.7
20260905200802 55 236 0.0 0.0 0.00 0.00 0.00 62 1011.8
20260905200254 56 236 0.0 0.0 0.00 0.00 0.00 62 1011.5
20260905200016 56 236 0.0 0.0 0.00 0.00 0.00 62 1011.4
20260905195218 55 236 0.0 0.0 0.00 0.00 0.00 61 1011.4
20260905194707 55 236 0.0 0.0 0.00 0.00 0.00 62 1011.5
20260905194428 55 236 0.0 0.0 0.00 0.00 0.00 62 1011.7
20260905193656 55 236 0.0 0.0 0.00 0.00 0.00 62 1011.5
20260905193350 55 236 0.0 0.0 0.00 0.00 0.00 63 1011.4
20260905192619 56 236 0.0 0.0 0.00 0.00 0.00 60 1011.0
20260905192111 56 236 0.0 0.0 0.00 0.00 0.00 61 1011.2
20260905191605 56 236 0.0 0.0 0.00 0.00 0.00 60 1011.0
20260905191328 56 236 0.0 0.0 0.00 0.00 0.00 60 1011.1
20260905190606 56 236 0.0 0.0 0.00 0.00 0.00 59 1011.0
20260905190104 57 236 0.0 0.0 0.00 0.00 0.00 58 1011.0
20260905185602 57 236 0.0 0.0 0.00 0.00 0.00 57 1010.5
20260905185054 58 236 0.0 0.0 0.00 0.00 0.00 56 1010.1
20260905184551 58 236 0.0 0.0 0.00 0.00 0.00 55 1009.9
20260905184048 59 236 0.0 0.0 0.00 0.00 0.00 54 1009.8
20260905183536 60 236 0.0 0.0 0.00 0.00 0.00 52 1009.7
20260905183019 60 236 0.0 4.0 0.00 0.00 0.00 50 1009.7
20260905182730 61 236 0.0 4.0 0.00 0.00 0.00 50 1009.4
20260905182000 61 236 0.0 4.0 0.00 0.00 0.00 49 1009.5
20260905181440 61 234 0.0 7.0 0.00 0.00 0.00 49 1009.4
20260905180928 61 315 0.0 7.0 0.00 0.00 0.00 49 1009.2
20260905180430 61 231 0.0 3.0 0.00 0.00 0.00 49 1009.3
20260905175922 61 231 0.0 2.0 0.00 0.00 0.00 50 1009.1
20260905175409 61 231 0.0 2.0 0.00 0.00 0.00 49 1008.9
20260905174902 62 231 0.0 2.0 0.00 0.00 0.00 51 1009.0
20260905174359 62 231 0.0 2.0 0.00 0.00 0.00 52 1009.2
20260905173902 62 231 0.0 0.0 0.00 0.00 0.00 53 1009.3
20260905173354 62 231 0.0 0.0 0.00 0.00 0.00 53 1009.0
20260905172817 62 231 0.0 0.0 0.00 0.00 0.00 52 1008.7
20260905172308 62 231 0.0 0.0 0.00 0.00 0.00 51 1008.8
20260905172249 62 231 0.0 2.0 0.00 0.00 0.00 52 1008.5
20260905171301 63 231 0.0 2.0 0.00 0.00 0.00 52 1008.5
20260905171026 63 229 0.0 2.0 0.00 0.00 0.00 52 1008.8
20260905170251 63 223 0.0 0.0 0.00 0.00 0.00 52 1008.9
20260905165749 63 223 0.0 0.0 0.00 0.00 0.00 52 1009.0
20260905165228 63 223 0.0 0.0 0.00 0.00 0.00 52 1009.0
20260905164717 63 223 0.0 0.0 0.00 0.00 0.00 52 1009.1
20260905164159 64 223 0.0 0.0 0.00 0.00 0.00 51 1009.1
20260905163700 64 223 0.0 0.0 0.00 0.00 0.00 51 1009.0
20260905163159 64 223 0.0 0.0 0.00 0.00 0.00 51 1009.0
20260905162641 64 223 0.0 0.0 0.00 0.00 0.00 50 1009.1
20260905162127 65 223 0.0 0.0 0.00 0.00 0.00 50 1009.1